Weather History for Hanford, WA

Change the Weather History Date:

Monday, August 13, 2012

  Actual Average Record
Temperature  
Mean Temperature 86 °F -  
Max Temperature 102 °F 91 °F 106 °F (2004)
Min Temperature 71 °F 61 °F 53 °F (2006)
Cooling Degree Days 22    
Growing Degree Days 36 (Base 50)    
Moisture  
Dew Point 43 °F    
Average Humidity 24    
Maximum Humidity 41    
Minimum Humidity 11    
Precipitation  
Precipitation 0.00 in - - ()
Sea Level Pressure  
Sea Level Pressure 29.84 in    
Wind  
Wind Speed 8 mph (WNW)    
Max Wind Speed 18 mph    
Max Gust Speed 26 mph    
Visibility 14 miles    
Events      
Averages and records for this station are not official NWS values.
T = Trace of Precipitation, MM = Missing Value Source: NWS Daily Summary

Daily Weather History Graph

Daily Weather History Graph

Search for Another Location

Airport:

Trip Planner

Search our weather history database for the weather conditions in past years. The results will help you decide how hot, cold, wet, or windy it might be!

Date:

Astronomy

Aug. 13, 2012 Rise Set
Actual Time 5:54 AM PDT 8:10 PM PDT
Civil Twilight 5:21 AM PDT 8:43 PM PDT
Nautical Twilight 4:40 AM PDT 9:24 PM PDT
Astronomical Twilight 3:53 AM PDT 10:11 PM PDT
Moon 1:54 AM PDT (8/13) 5:32 PM PDT (8/13)
Length of Visible Light 15h 22m
Length of Day
14h 15m
Waning Crescent, 15% of the Moon is Illuminated
Aug 13
Waning Crescent
Aug 17
New
Aug 24
First Quarter
Aug 31
Full
Sep 8
Last Quarter

Hourly Weather History & Observations

Time (PDT) Temp. Dew Point Humidity Pressure Visibility Wind Dir Wind Speed Gust Speed Precip Events Conditions
1:50 AM 76.3 °F 48.2 °F 37% 29.82 in 15.0 mi NW 9.2 mph - N/A   Clear
2:50 AM 71.8 °F 46.2 °F 40% 29.83 in 15.0 mi South 8.1 mph - N/A   Clear
3:50 AM 71.4 °F 42.4 °F 35% 29.84 in 15.0 mi West 6.9 mph - N/A   Clear
4:50 AM 72.0 °F 47.1 °F 41% 29.85 in 15.0 mi WNW 8.1 mph - N/A   Partly Cloudy
5:50 AM 72.3 °F 47.3 °F 41% 29.86 in 15.0 mi West 8.1 mph - N/A   Partly Cloudy
6:50 AM 72.9 °F 47.1 °F 40% 29.87 in 15.0 mi South 4.6 mph - N/A   Partly Cloudy
7:50 AM 78.8 °F 47.8 °F 34% 29.88 in 15.0 mi NW 5.8 mph - N/A   Partly Cloudy
8:50 AM 82.6 °F 47.3 °F 29% 29.89 in 15.0 mi WNW 5.8 mph - N/A   Clear
9:50 AM 87.3 °F 45.9 °F 24% 29.89 in 15.0 mi NNE 4.6 mph - N/A   Partly Cloudy
10:50 AM 90.1 °F 41.2 °F 18% 29.89 in 15.0 mi WSW 4.6 mph - N/A   Partly Cloudy
11:50 AM 94.5 °F 42.3 °F 16% 29.88 in 15.0 mi WNW 6.9 mph - N/A   Partly Cloudy
12:50 PM 99.1 °F 40.5 °F 13% 29.87 in 15.0 mi West 5.8 mph - N/A   Partly Cloudy
1:50 PM 100.6 °F 41.5 °F 13% 29.86 in 15.0 mi NE 6.9 mph - N/A   Partly Cloudy
2:50 PM 101.5 °F 46.0 °F 15% 29.84 in 15.0 mi East 11.5 mph 18.4 mph N/A   Partly Cloudy
3:50 PM 101.3 °F 44.4 °F 14% 29.83 in 15.0 mi SE 9.2 mph - N/A   Partly Cloudy
4:50 PM 102.4 °F 42.3 °F 13% 29.78 in 15.0 mi SSW 9.2 mph - N/A   Partly Cloudy
5:50 PM 102.2 °F 42.1 °F 13% 29.77 in 15.0 mi North 8.1 mph - N/A   Partly Cloudy
6:50 PM 97.0 °F 33.6 °F 11% 29.76 in 8.0 mi NW 18.4 mph 26.5 mph N/A   Partly Cloudy
10:50 PM 83.1 °F 36.5 °F 19% 29.81 in 8.0 mi West 8.1 mph - N/A   Clear
11:50 PM 81.3 °F 37.2 °F 21% 29.83 in 8.0 mi West 11.5 mph - N/A   Clear